Location: Vancouver
(49.2500°N, 123.1330°W)
Time: 23:57:08
(UTC-07:00)

Oscar 11 - Visible Passes

Search period start: 26 March 2015 00:00
Search period end: 05 April 2015 00:00
Orbit: 616 x 628 km, 97.8° (Epoch: 26 March)

Date Brightness Start Highest point End Pass type
(mag) Time Alt. Az. Time Alt. Az. Time Alt. Az.
26 Mar 8.4 20:54:13 20° E 20:55:37 23° ENE 20:59:05 10° N visible
26 Mar 7.9 22:31:26 44° WSW 22:31:35 44° W 22:35:45 10° NNW visible
27 Mar 7.9 21:12:15 28° E 21:13:26 33° ENE 21:17:21 10° N visible
27 Mar 8.6 22:49:27 29° W 22:49:39 30° W 22:53:28 10° NNW visible
28 Mar 7.4 21:30:16 39° ESE 21:31:17 48° ENE 21:35:29 10° N visible
28 Mar 9.2 23:07:29 20° W 23:07:46 20° W 23:10:59 10° NW visible
29 Mar 9.2 20:12:52 10° ENE 20:13:43 11° NE 20:14:46 10° NE visible
29 Mar 7.0 21:48:18 54° SE 21:49:10 72° ENE 21:53:31 10° N visible
29 Mar 9.6 23:25:30 14° W 23:25:56 14° W 23:28:08 10° NW visible
30 Mar 8.9 20:29:07 10° E 20:31:26 15° ENE 20:33:58 10° NNE visible
30 Mar 7.1 22:06:19 58° S 22:07:06 77° WSW 22:11:28 10° NNW visible
31 Mar 8.5 20:47:08 15° E 20:49:11 21° ENE 20:52:29 10° NNE visible
31 Mar 7.7 22:24:20 45° SW 22:25:05 51° W 22:29:20 10° NNW visible
01 Apr 8.1 21:05:09 21° ESE 21:06:59 29° ENE 21:10:46 10° N visible
01 Apr 8.4 22:42:21 32° WSW 22:43:06 34° W 22:47:05 10° NNW visible
02 Apr 7.6 21:23:10 29° ESE 21:24:48 42° ENE 21:28:56 10° N visible
02 Apr 8.9 23:00:23 22° WSW 23:01:12 23° W 23:04:40 10° NW visible
03 Apr 7.1 21:41:11 38° SE 21:42:40 62° ENE 21:46:59 10° N visible
03 Apr 9.4 23:18:24 15° WSW 23:19:20 16° W 23:21:58 10° NW visible
04 Apr 9.1 20:22:59 10° E 20:24:59 13° ENE 20:27:10 10° NNE visible
04 Apr 7.0 21:59:12 44° SSE 22:00:35 88° WSW 22:04:58 10° NNW visible
04 Apr 9.9 23:36:26 10° W 23:37:33 11° W 23:38:25 10° WNW visible
